Date String (YYYY-MM-DD hh:mm:ss) UTC,Instrument flags,absolute air pressure of the measurement (hPa),sample flow rate (lpm),inlet stack bypass flow (lpm),air temperature of the measurement (°C),ambient temperature measured by the external sensor (°C),aerosol sample conditioner tube jacket temperature (°C),OPC LED temperature (°C),internal box temperature (°C),relative humidity of the measurement (%),span deviation,mass concentration of particles derived from Lorenz-Mie calculation of OPC scattering (μg/m³),mass concentration of particles derived from Lorenz-Mie calculation of OPC scattering (μg/m³),mass concentration of particles derived from Lorenz-Mie calculation of OPC scattering (μg/m³)
DateTimeUTC,F1_M11,P_M11,Q1_M11,Q2_M11,T1_M11,T2_M11,T3_M11,T4_M11,T5_M11,U1_M11,ZSPAN_M11,X2_M11,X0_M11,X1_M11
2023-09-28 00:00:00,SystemResetWarning,0828.3,5.00,000.00,027.9,025.9,000.0,036.3,029.7,17.1,0000.0,0006.07,0016.69,0004.97
2023-09-28 00:01:00,SystemResetWarning,0828.2,5.00,000.00,028.0,026.3,000.0,036.3,029.8,16.9,0000.0,0006.11,0016.31,0004.97
2023-09-28 00:02:00,SystemResetWarning,0828.3,5.00,000.00,028.0,026.6,000.0,036.3,029.9,16.9,0000.0,0006.16,0016.46,0004.98
2023-09-28 00:03:00,SystemResetWarning,0828.3,5.00,000.00,028.1,026.9,000.0,036.4,030.0,16.9,0000.0,0006.24,0016.66,0004.99
2023-09-28 00:04:00,SystemResetWarning,0828.3,4.97,000.00,028.1,026.0,000.0,036.4,029.9,16.6,0000.0,0006.29,0018.11,0004.99
2023-09-28 00:05:00,SystemResetWarning,0828.2,5.00,000.00,028.0,024.5,000.0,036.3,029.7,16.9,0000.0,0006.34,0018.91,0004.98
2023-09-28 00:06:00,SystemResetWarning,0828.2,5.01,000.00,028.0,024.3,000.0,036.3,029.6,17.1,0000.0,0006.39,0018.81,0004.99
2023-09-28 00:07:00,SystemResetWarning,0828.2,5.00,000.00,027.9,024.7,000.0,036.3,029.5,16.9,0000.0,0006.44,0017.46,0004.99
2023-09-28 00:08:00,SystemResetWarning,0828.1,4.99,000.00,027.9,025.1,000.0,036.3,029.5,16.8,0000.0,0006.46,0018.18,0005.00
2023-09-28 00:09:00,SystemResetWarning,0828.2,5.00,000.00,027.9,025.5,000.0,036.3,029.6,16.9,0000.0,0006.45,0019.25,0005.01
2023-09-28 00:10:00,SystemResetWarning,0828.2,5.01,000.00,027.9,025.9,000.0,036.3,029.7,17.1,0000.0,0006.44,0019.36,0005.00
2023-09-28 00:11:00,SystemResetWarning,0828.2,5.00,000.00,028.0,026.3,000.0,036.3,029.8,17.2,0000.0,0006.41,0019.16,0004.99
2023-09-28 00:12:00,SystemResetWarning,0828.1,5.00,000.00,028.0,026.6,000.0,036.3,029.9,17.2,0000.0,0006.36,0020.11,0004.99
2023-09-28 00:13:00,SystemResetWarning,0828.2,5.00,000.00,028.1,026.9,000.0,036.4,030.0,17.1,0000.0,0006.31,0020.60,0004.98
2023-09-28 00:14:00,SystemResetWarning,0828.1,4.98,000.00,028.1,026.2,000.0,036.4,029.9,17.0,0000.0,0006.26,0021.22,0004.97
2023-09-28 00:15:00,SystemResetWarning,0828.2,5.00,000.00,028.0,024.6,000.0,036.3,029.7,16.8,0000.0,0006.21,0019.63,0004.96
2023-09-28 00:16:00,SystemResetWarning,0828.2,5.01,000.00,028.0,024.2,000.0,036.3,029.6,16.7,0000.0,0006.23,0018.88,0004.96
2023-09-28 00:17:00,SystemResetWarning,0828.1,5.01,000.00,027.9,024.5,000.0,036.2,029.5,16.8,0000.0,0006.13,0018.81,0004.96
2023-09-28 00:18:00,SystemResetWarning,0828.1,4.99,000.00,027.9,024.9,000.0,036.3,029.5,16.7,0000.0,0006.14,0020.28,0004.96
2023-09-28 00:19:00,SystemResetWarning,0828.1,5.00,000.00,027.9,025.4,000.0,036.3,029.6,16.6,0000.0,0006.17,0020.85,0004.96
2023-09-28 00:20:00,SystemResetWarning,0828.1,5.00,000.00,027.9,025.8,000.0,036.3,029.7,16.5,0000.0,0006.16,0020.68,0004.95
2023-09-28 00:21:00,SystemResetWarning,0828.1,5.00,000.00,027.9,026.2,000.0,036.3,029.8,16.4,0000.0,0006.14,0022.10,0004.94
2023-09-28 00:22:00,SystemResetWarning,0828.2,4.99,000.00,028.0,026.5,000.0,036.3,029.9,16.4,0000.0,0006.18,0022.82,0004.95
2023-09-28 00:23:00,SystemResetWarning,0828.2,5.00,000.00,028.1,026.8,000.0,036.3,030.0,16.3,0000.0,0006.22,0022.62,0004.94
2023-09-28 00:24:00,SystemResetWarning,0828.2,5.00,000.00,028.1,027.0,000.0,036.4,030.0,16.4,0000.0,0006.22,0022.44,0004.95
2023-09-28 00:25:00,SystemResetWarning,0828.1,4.99,000.00,028.1,025.7,000.0,036.3,029.9,16.5,0000.0,0006.26,0023.03,0004.95
2023-09-28 00:26:00,SystemResetWarning,0828.1,5.01,000.00,028.1,024.3,000.0,036.3,029.7,16.7,0000.0,0006.34,0024.06,0004.96
2023-09-28 00:27:00,SystemResetWarning,0828.1,5.01,000.00,028.0,024.3,000.0,036.3,029.6,16.7,0000.0,0006.37,0026.07,0004.97
2023-09-28 00:28:00,SystemResetWarning,0828.0,5.01,000.00,027.9,024.6,000.0,036.3,029.5,16.7,0000.0,0006.45,0026.16,0004.96
2023-09-28 00:29:00,SystemResetWarning,0828.1,5.00,000.00,027.9,025.1,000.0,036.3,029.5,16.8,0000.0,0006.47,0024.59,0004.95
2023-09-28 00:30:00,SystemResetWarning,0828.1,4.99,000.00,027.9,025.5,000.0,036.3,029.6,16.6,0000.0,0006.50,0024.10,0004.96
2023-09-28 00:31:00,SystemResetWarning,0828.1,5.00,000.00,027.9,025.9,000.0,036.3,029.7,16.5,0000.0,0006.57,0024.53,0004.97
2023-09-28 00:32:00,SystemResetWarning,0828.1,5.00,000.00,028.0,026.3,000.0,036.3,029.8,16.5,0000.0,0006.64,0023.19,0005.00
2023-09-28 00:33:00,SystemResetWarning,0828.1,4.99,000.00,028.0,026.6,000.0,036.3,029.9,16.4,0000.0,0006.64,0022.10,0005.02
2023-09-28 00:34:00,SystemResetWarning,0828.2,5.00,000.00,028.1,026.9,000.0,036.4,030.0,16.3,0001.4,0006.61,0021.32,0005.03
2023-09-28 00:35:00,SystemResetWarning,0828.1,4.99,000.00,028.2,026.7,000.0,036.4,030.1,16.2,0002.3,0006.66,0020.36,0005.04
2023-09-28 00:36:00,SystemResetWarning,0828.1,5.00,000.00,028.1,025.0,000.0,036.4,029.9,16.1,0002.9,0006.63,0019.81,0005.07
2023-09-28 00:37:00,SystemResetWarning,0828.0,5.02,000.00,028.0,024.1,000.0,036.3,029.7,16.3,0002.8,0006.59,0018.62,0005.09
2023-09-28 00:38:00,SystemResetWarning,0828.1,5.00,000.00,028.0,024.3,000.0,036.3,029.6,16.3,0002.8,0006.61,0019.68,0005.10
2023-09-28 00:39:00,SystemResetWarning,0828.1,5.00,000.00,027.9,024.7,000.0,036.3,029.5,16.4,0002.6,0006.60,0020.47,0005.13
2023-09-28 00:40:00,SystemResetWarning,0828.1,5.01,000.00,027.9,025.1,000.0,036.3,029.5,16.5,0002.4,0006.63,0021.33,0005.16
2023-09-28 00:41:00,SystemResetWarning,0828.1,5.01,000.00,027.9,025.6,000.0,036.3,029.6,16.4,0002.6,0006.67,0021.17,0005.18
2023-09-28 00:42:00,SystemResetWarning,0828.1,4.99,000.00,027.9,026.0,000.0,036.3,029.7,16.5,0003.0,0006.68,0020.36,0005.18
2023-09-28 00:43:00,SystemResetWarning,0828.1,5.00,000.00,028.0,026.3,000.0,036.3,029.8,16.6,0002.5,0006.70,0021.07,0005.18
2023-09-28 00:44:00,SystemResetWarning,0828.2,5.01,000.00,028.0,026.7,000.0,036.4,029.9,16.8,0002.1,0006.69,0022.65,0005.17
2023-09-28 00:45:00,SystemResetWarning,0828.1,5.00,000.00,028.1,026.9,000.0,036.4,030.0,16.7,0000.3,0006.69,0022.36,0005.18
2023-09-28 00:46:00,SystemResetWarning,0828.1,4.99,000.00,028.1,026.1,000.0,036.4,030.0,16.7,0000.0,0006.66,0022.66,0005.19
2023-09-28 00:47:00,SystemResetWarning,0828.1,4.99,000.00,028.1,024.4,000.0,036.3,029.7,16.6,0000.3,0006.63,0022.38,0005.19
2023-09-28 00:48:00,SystemResetWarning,0828.1,5.01,000.00,028.0,023.9,000.0,036.3,029.6,16.6,0002.5,0006.61,0022.06,0005.18
2023-09-28 00:49:00,SystemResetWarning,0828.1,5.01,000.00,027.9,024.2,000.0,036.2,029.4,16.6,0002.5,0006.57,0020.39,0005.18
2023-09-28 00:50:00,SystemResetWarning,0828.1,4.99,000.00,027.8,024.7,000.0,036.3,029.4,16.7,0002.9,0006.60,0018.96,0005.18
2023-09-28 00:51:00,SystemResetWarning,0828.1,4.99,000.00,027.8,025.1,000.0,036.3,029.5,16.8,0002.1,0006.56,0017.71,0005.19
2023-09-28 00:52:00,SystemResetWarning,0828.2,5.00,000.00,027.9,025.6,000.0,036.3,029.6,16.7,0003.6,0006.45,0017.55,0005.18
2023-09-28 00:53:00,SystemResetWarning,0828.1,5.01,000.00,027.9,026.0,000.0,036.3,029.7,16.5,0003.4,0006.38,0017.31,0005.19
2023-09-28 00:54:00,SystemResetWarning,0828.2,4.99,000.00,027.9,026.3,000.0,036.3,029.8,16.5,0003.3,0006.31,0016.58,0005.18
2023-09-28 00:55:00,SystemResetWarning,0828.2,5.00,000.00,028.0,026.6,000.0,036.3,029.9,16.3,0002.1,0006.32,0015.60,0005.19
2023-09-28 00:56:00,SystemResetWarning,0828.2,5.00,000.00,028.0,026.9,000.0,036.4,029.9,16.2,0002.3,0006.31,0016.18,0005.20
2023-09-28 00:57:00,SystemResetWarning,0828.2,5.00,000.00,028.1,027.0,000.0,036.4,030.0,16.0,0002.6,0006.33,0017.67,0005.20
2023-09-28 00:58:00,SystemResetWarning,0828.2,4.98,000.00,028.1,025.6,000.0,036.4,029.9,15.9,0004.0,0006.36,0018.39,0005.21
2023-09-28 00:59:00,SystemResetWarning,0828.2,5.01,000.00,028.0,024.0,000.0,036.3,029.6,16.0,0001.1,0006.38,0019.22,0005.21
